Regional Weather Roundup
Issued by NWS Albany, NY

Home | Current Version | Previous Version | Text Only | Print | Product List | Glossary On
Versions: 1 2 3 4 5 6 7 8 9 10 11 12 13 14 15 16 17 18 19 20 21 22 23 24 25 26
000
ASUS41 KALY 270410
RWRALY

NEW YORK STATE HOURLY WEATHER ROUNDUP
NATIONAL WEATHER SERVICE ALBANY NY
1200 AM EDT FRI MAY 27 2016

NOTE: "FAIR" INDICATES FEW OR NO CLOUDS BELOW 12,000 FEET WITH NO
SIGNIFICANT WEATHER AND/OR NO OBSTRUCTIONS TO VISIBILITY.

NYZ032-033-038>043-046>054-057>066-NYZ062>081-082-084-270500-
EAST


CITY           SKY/WX    TMP DP  RH WIND       PRES   REMARKS
ALBANY         CLOUDY    76  55  48 S10       30.01F
GLENS FALLS    CLOUDY    68  59  73 CALM      30.02S
POUGHKEEPSIE   CLOUDY    70  55  59 SE3       30.03S
NEWBURGH       CLEAR     70  54  56 S7        30.06S
MONTGOMERY     PTCLDY    65  59  81 CALM      30.04S
WHITE PLAINS   CLEAR     67  52  58 CALM      30.07S
ISLIP          PTCLDY    65  57  75 S5        30.08S
NEW YORK CITY  PTCLDY    71  64  78 S7        30.05S
CENTRAL PARK   PTCLDY    76  51  41 VRB5      30.08S
$$

NYZ005>009-017-018-044>046-055-056-270500-
CENTRAL


CITY           SKY/WX    TMP DP  RH WIND       PRES   REMARKS
FULTON         FOG       63  60  90 CALM      29.98S VSB 1
SYRACUSE       CLOUDY    68  61  78 CALM      29.98R
ROME           CLOUDY    71  61  70 SE3       30.01S
ELMIRA         PTCLDY    69  59  70 CALM      30.02R
BINGHAMTON     CLEAR     70  56  61 S5        30.07R
MONTICELLO     CLEAR     70  57  64 CALM      30.10S
$$

NYZ026>034-041>043-087-270500-
NORTH


CITY           SKY/WX    TMP DP  RH WIND       PRES   REMARKS
WATERTOWN      CLEAR     60  57  89 CALM      29.96S FOG
FORT DRUM      NOT AVBL
MASSENA        CLOUDY    66  52  60 CALM      29.97S
SARANAC LAKE   CLOUDY    59  51  75 CALM      30.03F
PLATTSBURGH    CLOUDY    65  53  65 CALM      29.98F
$$

NYZ001>004-010>016-019>021-085-270500-
WEST


CITY           SKY/WX    TMP DP  RH WIND       PRES   REMARKS
NIAGARA FALLS  MOCLDY    71  61  70 S6        29.96S
BUFFALO        CLOUDY    71  64  78 S8        29.97S
DUNKIRK        CLOUDY    64  62  93 CALM      29.98S
WELLSVILLE     CLEAR     70  59  68 S3        30.08S
ROCHESTER      CLOUDY    68  65  90 SW3       29.98S
PENN YAN       CLEAR     65  60  84 SW3       30.01S
$$

             KEY
       WCI = WIND CHILL INDEX
       VSB = VISIBILITY
       HX  = HEAT INDEX
$$




USA.gov is the U.S. government's official web portal to all federal, state and local government web resources and services.